Weather History for 06760 - May, 2013

Change the Weather History Date:

Saturday, May 11, 2013

  Actual Average Record
Temperature  
Mean Temperature 63 °F -  
Max Temperature 75 °F 72 °F - ()
Min Temperature 51 °F 53 °F - ()
Degree Days  
Heating Degree Days 2    
Growing Degree Days 13 (Base 50)    
Moisture  
Dew Point 42 °F    
Average Humidity 41    
Maximum Humidity 71    
Minimum Humidity 11    
Precipitation  
Precipitation 0.00 in - - ()
Sea Level Pressure  
Sea Level Pressure 29.83 in    
Wind  
Wind Speed 3 mph ()    
Max Wind Speed 12 mph    
Max Gust Speed -    
T = Trace of Precipitation, MM = Missing Value Source: Averaged Metar Reports

Daily Weather History Graph

Daily Weather History Graph

Search for Another Location

Airport or City:

Trip Planner

Search our weather history database for the weather conditions in past years. The results will help you decide how hot, cold, wet, or windy it might be!

Date:

Astronomy

May. 11, 2013 Rise Set
Actual Time 5:57 AM CEST 8:46 PM CEST
Civil Twilight 5:22 AM CEST 9:20 PM CEST
Nautical Twilight 4:38 AM CEST 10:05 PM CEST
Astronomical Twilight 3:46 AM CEST 10:57 PM CEST
Moon 6:51 AM CEST (5/11) 10:14 PM CEST (5/11)
Length of Visible Light 15h 58m
Length of Day
14h 48m
New Moon, 2% of the Moon is Illuminated
May 11
New Moon
May 18
First Quarter
May 25
Full
May 31
Last Quarter
Jun 8
New

Hourly Weather History & Observations

Time (CEST) Temp. Dew Point Humidity Pressure Visibility Wind Dir Wind Speed Gust Speed Precip Events Conditions
12:00 AM 58 °F 51 °F 70% 29.89 in - North 1.2 mph - -  
1:00 AM 57 °F 49 °F 68% 29.89 in - North 2.3 mph - -  
2:00 AM 56 °F 48 °F 68% 29.89 in - North 1.2 mph - -  
3:00 AM 57 °F 45 °F 55% 29.88 in - NNE 3.5 mph - -  
6:00 AM 53 °F 45 °F 66% 29.87 in - NE 1.2 mph - -  
7:00 AM 53 °F 45 °F 65% 29.88 in - North 1.2 mph - -  
8:00 AM 56 °F 49 °F 71% 29.87 in 37 mi East 1.2 mph - -   Scattered Clouds
9:00 AM 59 °F 48 °F 57% 29.86 in - SSE 2.3 mph - -  
10:00 AM 62 °F 46 °F 45% 29.85 in - SE 3.5 mph - -  
12:00 PM 68 °F 49 °F 40% 29.81 in - SE 4.6 mph - -  
1:00 PM 69 °F 47 °F 34% 29.80 in - SSE 3.5 mph - -  
2:00 PM 71 °F 47 °F 31% 29.78 in 37 mi South 4.6 mph - -   Scattered Clouds
3:00 PM 73 °F 40 °F 19% 29.76 in - ESE 3.5 mph - -  
4:00 PM 74 °F 32 °F 12% 29.74 in - WSW 4.6 mph - -  
6:00 PM 72 °F 29 °F 11% 29.76 in - WNW 11.5 mph - -  
7:00 PM 71 °F 31 °F 13% 29.77 in - WNW 10.4 mph - -  
8:00 PM 67 °F 31 °F 16% 29.80 in 37 mi West 10.4 mph - -   Scattered Clouds
9:00 PM 65 °F 30 °F 16% 29.84 in - West 3.5 mph - -  
10:00 PM 63 °F 31 °F 18% 29.88 in - SSE 3.5 mph - -